Daviess Cnty AP, Washington,, IN

2:45 AM EST on November 17, 2019 (GMT -0500)
Daviess County

Weather History for KDCY - September, 2019

Change the Weather History Date:

Thursday, September 19, 2019

  Actual Average (KLWV) Record (KLWV)
Temperature  
Mean Temperature 73 °F 68 °F  
Max Temperature 88 °F 81 °F 95 °F (2018)
Min Temperature 58 °F 56 °F 40 °F (2012)
Degree Days  
Heating Degree Days 0 1  
Month to date heating degree days 6  
Since 1 July heating degree days 7  
Cooling Degree Days 8 5  
Month to date cooling degree days 133  
Year to date cooling degree days 1316  
Growing Degree Days 23 (Base 50)    
Moisture  
Dew Point 62 °F    
Average Humidity 75    
Maximum Humidity 99    
Minimum Humidity 35    
Precipitation  
Precipitation 0.00 in 0.09 in 0.70 in (2005)
Month to date precipitation 2.00  
Year to date precipitation 31.35  
Sea Level Pressure  
Sea Level Pressure 30.05 in    
Wind  
Wind Speed 1 mph (SSW)    
Max Wind Speed 6 mph    
Max Gust Speed -    
Visibility 10 miles    
Events      
T = Trace of Precipitation, MM = Missing Value Source: NWS Daily Summary

Daily Weather History Graph

Daily Weather History Graph

Search for Another Location

Airport or City:

Astronomy

Sep. 19, 2019 Rise Set
Actual Time 7:33 AM EDT 7:50 PM EDT
Civil Twilight 7:06 AM EDT 8:17 PM EDT
Nautical Twilight 6:35 AM EDT 8:48 PM EDT
Astronomical Twilight 6:03 AM EDT 9:20 PM EDT
Moon 11:02 PM EDT (9/19) 12:33 PM EDT (9/19)
Length of Visible Light 13h 10m
Length of Day
12h 17m
Waning Gibbous, 74% of the Moon is Illuminated
Sep 19
Waning Gibbous
Sep 21
Last Quarter
Sep 28
New
Oct 5
First Quarter
Oct 13
Full

Hourly Weather History & Observations

Time (EDT) Temp. Heat Index Dew Point Humidity Pressure Visibility Wind Dir Wind Speed Gust Speed Precip Events Conditions
12:15 AM 62.6 °F - 62.4 °F 99% 30.04 in 10.0 mi Calm Calm - N/A   Clear
12:35 AM 62.2 °F - 61.9 °F 99% 30.04 in 10.0 mi Calm Calm - N/A   Clear
12:55 AM 62.6 °F - 62.2 °F 99% 30.04 in 10.0 mi Calm Calm - N/A   Clear
1:15 AM 62.8 °F - 62.2 °F 98% 30.04 in 10.0 mi Calm Calm - N/A   Clear
1:35 AM 63.1 °F - 61.9 °F 96% 30.04 in 10.0 mi Calm Calm - N/A   Clear
1:55 AM 62.6 °F - 62.2 °F 99% 30.04 in 10.0 mi Calm Calm - N/A   Clear
2:15 AM 60.8 °F - 60.4 °F 99% 30.05 in 10.0 mi Calm Calm - N/A   Clear
2:35 AM 60.4 °F - 60.1 °F 99% 30.05 in 10.0 mi Calm Calm - N/A   Clear
2:50 AM 60.4 °F - 60.1 °F 99% 30.05 in 10.0 mi Calm Calm - N/A   Clear
3:15 AM 60.1 °F - 59.9 °F 99% 30.05 in 10.0 mi Calm Calm - N/A   Clear
3:35 AM 61.5 °F - 61.3 °F 99% 30.05 in 10.0 mi Calm Calm - N/A   Clear
3:55 AM 61.2 °F - 61.0 °F 99% 30.04 in 10.0 mi Calm Calm - N/A   Clear
4:15 AM 59.9 °F - 59.5 °F 99% 30.05 in 10.0 mi Calm Calm - N/A   Clear
4:35 AM 60.1 °F - 59.7 °F 99% 30.05 in 10.0 mi Calm Calm - N/A   Clear
4:55 AM 60.1 °F - 59.7 °F 99% 30.04 in 10.0 mi Calm Calm - N/A   Clear
5:15 AM 58.6 °F - 58.3 °F 99% 30.04 in 10.0 mi Calm Calm - N/A   Clear
5:30 AM 59.2 °F - 59.0 °F 99% 30.04 in 10.0 mi Calm Calm - N/A   Clear
5:55 AM 59.2 °F - 59.0 °F 99% 30.04 in 10.0 mi Calm Calm - N/A   Clear
6:15 AM 59.7 °F - 59.5 °F 99% 30.03 in 10.0 mi Calm Calm - N/A   Clear
6:30 AM 60.4 °F - 60.3 °F 99% 30.04 in 10.0 mi SE 3.5 mph - N/A   Clear
6:55 AM 61.0 °F - 60.4 °F 98% 30.04 in 10.0 mi Calm Calm - N/A   Clear
7:10 AM 59.9 °F - 59.7 °F 99% 30.05 in 10.0 mi Calm Calm - N/A   Clear
7:35 AM 60.3 °F - 60.1 °F 99% 30.05 in 10.0 mi ESE 3.5 mph - N/A   Clear
7:55 AM 62.1 °F - 60.4 °F 94% 30.05 in 10.0 mi Calm Calm - N/A   Clear
8:15 AM 62.8 °F - 60.8 °F 93% 30.06 in 10.0 mi Calm Calm - N/A   Clear
8:35 AM 65.3 °F - 61.0 °F 86% 30.06 in 10.0 mi Calm Calm - N/A   Clear
8:55 AM 66.6 °F - 59.7 °F 79% 30.07 in 10.0 mi Calm Calm - N/A   Clear
9:15 AM 68.4 °F - 60.1 °F 75% 30.08 in 10.0 mi Calm Calm - N/A   Clear
9:35 AM 70.2 °F - 59.4 °F 69% 30.08 in 10.0 mi ESE 4.6 mph - N/A   Clear
9:55 AM 71.6 °F - 59.4 °F 65% 30.08 in 10.0 mi ESE 4.6 mph - N/A   Clear
10:15 AM 73.0 °F - 59.7 °F 63% 30.10 in 10.0 mi ESE 3.5 mph - N/A   Clear
10:35 AM 74.7 °F - 60.8 °F 62% 30.10 in 10.0 mi SSE 3.5 mph - N/A   Clear
10:55 AM 76.8 °F - 61.9 °F 60% 30.10 in 10.0 mi SSE 3.5 mph - N/A   Clear
11:55 AM 80.4 °F 82.1 °F 64.2 °F 58% 30.10 in 10.0 mi West 4.6 mph - N/A   Clear
12:15 PM 80.6 °F 82.2 °F 64.0 °F 57% 30.10 in 10.0 mi Calm Calm - N/A   Clear
12:35 PM 81.5 °F 83.1 °F 64.4 °F 56% 30.09 in 10.0 mi Calm Calm - N/A   Clear
12:55 PM 82.9 °F 84.4 °F 64.4 °F 53% 30.08 in 10.0 mi Calm Calm - N/A   Clear
1:15 PM 83.3 °F 85.1 °F 64.9 °F 54% 30.08 in 10.0 mi Calm Calm - N/A   Clear
1:35 PM 84.9 °F 86.3 °F 64.4 °F 50% 30.08 in 10.0 mi SE 3.5 mph - N/A   Clear
1:55 PM 85.5 °F 86.3 °F 63.1 °F 47% 30.07 in 10.0 mi Calm Calm - N/A   Clear
2:15 PM 86.2 °F 87.1 °F 63.3 °F 46% 30.07 in 10.0 mi WNW 5.8 mph - N/A   Clear
2:35 PM 86.9 °F 87.0 °F 61.2 °F 42% 30.06 in 10.0 mi Calm Calm - N/A   Clear
2:55 PM 86.0 °F 86.6 °F 62.6 °F 45% 30.06 in 10.0 mi West 3.5 mph - N/A   Clear
3:15 PM 87.6 °F 87.9 °F 62.1 °F 42% 30.05 in 10.0 mi SSE 3.5 mph - N/A   Clear
3:35 PM 87.3 °F 87.7 °F 62.4 °F 43% 30.05 in 10.0 mi WSW 3.5 mph - N/A   Clear
3:55 PM 88.3 °F 87.8 °F 59.7 °F 38% 30.04 in 10.0 mi SSW 3.5 mph - N/A   Scattered Clouds
4:15 PM 87.8 °F 87.1 °F 59.4 °F 38% 30.04 in 10.0 mi SSW 4.6 mph - N/A   Clear
4:35 PM 88.0 °F 88.4 °F 62.1 °F 42% 30.04 in 10.0 mi SSW 5.8 mph - N/A   Clear
4:55 PM 87.6 °F 87.7 °F 61.3 °F 41% 30.03 in 10.0 mi SW 4.6 mph - N/A   Clear
5:15 PM 87.6 °F 86.3 °F 57.2 °F 35% 30.03 in 10.0 mi Calm Calm - N/A   Clear
5:35 PM 87.6 °F 87.9 °F 61.7 °F 42% 30.03 in 10.0 mi SW 5.8 mph - N/A   Clear
5:55 PM 86.2 °F 87.3 °F 63.5 °F 47% 30.03 in 10.0 mi WSW 3.5 mph - N/A   Clear
6:15 PM 86.0 °F 86.3 °F 62.1 °F 44% 30.03 in 10.0 mi SSW 4.6 mph - N/A   Clear
6:35 PM 85.3 °F 86.1 °F 62.8 °F 47% 30.03 in 10.0 mi SW 3.5 mph - N/A   Clear
6:55 PM 84.2 °F 85.2 °F 63.3 °F 49% 30.03 in 10.0 mi SW 3.5 mph - N/A   Clear
7:15 PM 82.4 °F 84.1 °F 64.9 °F 55% 30.02 in 10.0 mi Calm Calm - N/A   Clear
7:35 PM 77.5 °F - 64.8 °F 65% 30.02 in 10.0 mi SW 3.5 mph - N/A   Clear
7:55 PM 73.9 °F - 64.6 °F 72% 30.03 in 10.0 mi Calm Calm - N/A   Clear
8:15 PM 70.5 °F - 65.7 °F 85% 30.03 in 10.0 mi Calm Calm - N/A   Clear
8:35 PM 70.9 °F - 63.9 °F 78% 30.04 in 10.0 mi Calm Calm - N/A   Clear
8:55 PM 68.5 °F - 63.7 °F 84% 30.04 in 10.0 mi Calm Calm - N/A   Clear
9:15 PM 67.8 °F - 63.0 °F 84% 30.05 in 10.0 mi Calm Calm - N/A   Clear
9:35 PM 66.9 °F - 63.3 °F 88% 30.05 in 10.0 mi Calm Calm - N/A   Clear
9:55 PM 68.7 °F - 63.0 °F 82% 30.06 in 10.0 mi Calm Calm - N/A   Clear
10:15 PM 67.1 °F - 62.6 °F 85% 30.06 in 10.0 mi Calm Calm - N/A   Clear
10:35 PM 66.4 °F - 63.0 °F 89% 30.06 in 10.0 mi Calm Calm - N/A   Clear
10:55 PM 66.7 °F - 62.6 °F 86% 30.06 in 10.0 mi Calm Calm - N/A   Clear
11:15 PM 65.3 °F - 63.9 °F 95% 30.06 in 10.0 mi Calm Calm - N/A   Clear
11:35 PM 66.6 °F - 64.2 °F 92% 30.07 in 10.0 mi Calm Calm - N/A   Clear
11:55 PM 65.1 °F - 63.7 °F 95% 30.07 in 10.0 mi Calm Calm - N/A   Clear